Location: Ahstedt
(52.2048°N, 10.1060°E)
Time: 23:43:48
(UTC+00:00)

Okean 1-7 - Pass Details

Date: 18 January 2026
Orbit: 566 x 588 km, 82.5° (Epoch: 9 February)

Event Time Altitude Azimuth Distance (km) Brightness Sun altitude
Exits shadow 06:27:45 - 333° (NNW) 2,431 5.6 -7.7°
Reaches altitude 10° 06:29:24 10° 321° (NW) 1,885 5.0 -7.5°
Maximum altitude 06:32:25 20° 274° (W) 1,365 4.3 -7.0°
Drops below altitude 10° 06:35:25 10° 227° (SW) 1,883 5.3 -6.6°
Sets 06:38:03 0° 210° (SSW) 2,780 6.4 -6.3°
